[[{"header":{"parameterUnit":"m.s-1","parameterCategory":1,"la1":30.2991,"la2":30.254,"lo1":-89.0895,"lo2":-89.0444,"dy":0.0017,"dx":0.0017,"nx":28,"ny":28,"refTime":"2024-12-19T03:00:00:Z","depth":0,"parameterNumber":2,"parameterNumberName":"U-component_of_WINDS"},"data":[0,0,0,0,0,0,0,0,0,0,0,0,0,0,0,0,0,0,0,0,0,0,0,0,0,0,0,0,0,0,0,0,0,0,0,0,0,0,0,0,0,0,0,0,0,0,0,0,0,0,0,0,0,0,0,0,0,0,3.2588,3.2589,0,3.2692,3.2693,3.2694,3.2668,3.2666,3.2664,3.2662,3.2769,3.2774,3.2778,0,0,0,0,0,0,0,0,0,0,0,0,0,3.2371,3.2375,3.2588,3.2589,3.2591,3.2691,3.2693,3.2694,3.2669,3.2666,3.2664,3.2662,3.2768,3.2773,3.2779,0,0,0,0,0,0,0,0,0,0,0,0,0,3.2469,3.2376,3.2588,3.259,3.2591,3.2691,3.2693,3.2695,3.2669,3.2666,3.2663,3.266,3.2766,3.2773,3.278,3.2884,0,0,3.2801,3.2804,0,0,0,0,0,0,0,0,3.2463,3.2477,3.2588,3.259,3.2592,3.2664,3.2655,3.2758,3.267,3.264,3.2662,3.2659,3.2737,3.2746,3.2772,3.2889,3.2893,3.2802,3.2806,3.2809,3.2811,0,0,0,0,0,0,0,3.2456,3.2472,3.2629,3.259,3.2592,3.2587,3.2597,3.2675,3.2704,3.2642,3.264,3.2653,3.2737,3.2765,3.2774,3.2895,3.2802,3.2808,3.2812,3.2815,3.3105,3.3108,0,0,0,0,0,0,3.2448,3.2467,3.2626,3.2632,3.2519,3.2593,3.2605,3.2644,3.2703,3.2709,3.2655,3.2651,3.2755,3.2766,3.2778,3.2905,3.2809,3.2816,3.282,3.3101,3.3106,3.3109,0,0,0,0,0,0,3.2443,3.2462,3.2621,3.2549,3.2569,3.26,3.2644,3.2647,3.2676,3.2713,3.2718,3.2679,3.2753,3.2768,3.2858,3.2908,3.2819,3.2825,3.3097,3.3103,3.3108,3.316,0,0,0,0,0,0,3.2437,3.2461,3.25,3.255,3.2573,3.2699,3.2647,3.2652,3.2688,3.2683,3.2736,3.2742,3.2751,3.2848,3.2865,3.2917,3.2831,3.3093,3.31,3.3106,3.3153,3.3166,3.3176,0,0,0,0,0,3.243,3.251,3.2502,3.2521,3.2622,3.2702,3.2715,3.2724,3.2692,3.2732,3.2757,3.2741,3.29,3.2857,3.2877,3.2931,3.309,3.3098,3.3105,3.3148,3.3163,3.3176,0,0,0,0,0,0,3.2465,3.2517,3.2508,3.2607,3.2651,3.2698,3.2748,3.2739,3.2793,3.2786,3.2795,3.2808,3.29,3.2924,3.2876,3.3036,3.2991,3.3003,3.3017,3.3031,3.3042,3.3035,3.2837,0,0,0,0,0,3.2484,3.2544,3.2587,3.267,3.2692,3.2717,3.2752,3.2755,3.28,3.2819,3.2849,3.2894,3.2955,3.2994,3.3052,3.3157,3.3169,3.3204,3.3216,3.3225,3.3235,3.3295,3.3311,3.3135,3.3135,3.3135,0,0,3.2525,3.2561,3.2598,3.2678,3.2712,3.2775,3.2732,3.28,3.2847,3.2829,3.2916,3.2941,3.2992,3.309,3.3135,3.3114,3.3287,3.3235,3.3242,3.3247,3.3305,3.3321,3.3336,3.314,3.3139,3.3138,0,0,3.2631,3.2664,3.2737,3.2773,3.2825,3.2841,3.2859,3.2908,3.2924,3.3012,3.3,3.3057,3.316,3.3197,3.323,3.3353,3.3341,3.3372,3.3432,3.349,3.3504,3.3516,3.3561,3.3577,3.3382,3.3382,3.3382,0,3.2675,3.2768,3.2776,3.2846,3.2883,3.287,3.2945,3.2979,3.3048,3.3074,3.3048,3.318,3.3213,3.3321,3.3351,3.3378,3.3399,3.3365,3.3501,3.3513,3.3525,3.3568,3.3585,3.3386,3.3385,3.3385,3.3384,0,3.282,3.2886,3.2939,3.3006,3.3049,3.3121,3.3141,3.3184,3.3184,3.3203,3.3294,3.3334,3.34,3.3426,3.3427,3.3536,3.3521,3.3498,3.3453,3.3545,3.3586,3.3602,3.3391,3.3389,3.3388,3.3387,0,0,3.295,3.3022,3.3042,3.3073,3.313,3.3182,3.3255,3.332,3.3356,3.3405,3.3467,3.3556,3.3536,3.3573,3.3578,3.3629,3.3726,3.3601,3.3602,3.3623,3.385,3.3867,3.3886,3.3719,3.3722,3.3724,3.3846,0,3.3061,3.3189,3.32,3.3315,3.3376,3.3366,3.343,3.3473,3.3494,3.355,3.3573,3.3636,3.3605,3.3628,3.3677,3.3704,3.3772,3.3695,3.3777,3.378,3.3765,3.3907,3.3924,3.4037,3.3862,3.3865,3.3867,0,3.3208,3.3262,3.3383,3.3434,3.3461,3.3517,3.3579,3.3633,3.3682,3.3694,3.3737,3.3735,3.3812,3.3764,3.387,3.3818,3.3852,3.3871,3.3875,3.3883,3.3829,3.3919,3.4073,3.409,3.3892,3.389,3.3888,0,3.3292,3.3394,3.348,3.3507,3.3569,3.361,3.3637,3.3684,3.3723,3.3777,3.3803,3.3866,3.39,3.3949,3.3966,3.3929,3.4072,3.4025,3.4084,3.4084,3.4114,3.4112,3.4277,3.4136,3.4136,3.4136,3.4136,0,3.3415,3.349,3.3519,3.3572,3.3657,3.3669,3.3752,3.3778,3.382,3.3879,3.3874,3.393,3.3948,3.4007,3.4021,3.4107,3.4123,3.4135,3.4138,3.4136,3.4134,3.4158,3.4151,3.414,3.4139,3.4139,3.4138,0,3.3522,3.3544,3.3638,3.3689,3.3704,3.3764,3.3809,3.3861,3.3881,3.3956,3.3975,3.4007,3.4077,3.4098,3.4182,3.4191,3.4293,3.4288,3.4276,3.4277,3.4335,3.433,3.4521,3.4547,3.4389,3.4391,3.4392,0,3.36,3.3657,3.3715,3.3754,3.3784,3.3847,3.3887,3.3903,3.3945,3.4007,3.4052,3.4121,3.4177,3.4289,3.4321,3.4386,3.4383,3.4446,3.4392,3.4389,3.4385,3.4381,3.4388,3.4455,3.4457,3.4458,3.4459,0,3.3735,3.3744,3.3802,3.3865,3.3914,3.3964,3.4012,3.4045,3.4068,3.4116,3.4187,3.4231,3.4317,3.4386,3.4453,3.4482,3.4476,3.4476,3.4494,3.4492,3.4483,3.449,3.4304,3.4472,3.447,3.4469,3.4469,3.4468,3.383,3.3882,3.3931,3.3997,3.4035,3.4081,3.4133,3.4161,3.4221,3.4292,3.4298,3.4376,3.4426,3.4514,3.4547,3.4609,3.4591,3.4616,3.4622,3.4628,3.4634,3.4473,3.4621,3.4621,3.4621,3.462,3.462,0,3.3966,3.3998,3.4058,3.4127,3.4179,3.4169,3.4222,3.4267,3.4335,3.4383,3.4438,3.4522,3.4589,3.4627,3.4695,3.4737,3.4736,3.4755,3.4752,3.4759,3.4645,3.4624,3.4755,3.4755,3.4755,3.4755,3.4755,3.4755,3.4043,3.413,3.4145,3.4252,3.4283,3.4359,3.4391,3.4434,3.4472,3.4565,3.4622,3.4646,3.4691,3.4762,3.4824,3.4834,3.4859,3.488,3.4888,3.4781,3.4767,3.4754,3.4734,3.4885,3.4886,3.4997,3.4998,3.4998]},{"header":{"parameterUnit":"m.s-1","parameterCategory":1,"la1":30.2991,"la2":30.254,"lo1":-89.0895,"lo2":-89.0444,"dy":0.0017,"dx":0.0017,"nx":28,"ny":28,"refTime":"2024-12-19T03:00:00:Z","depth":0,"parameterNumber":3,"parameterNumberName":"V-component_of_WINDS"},"data":[0,0,0,0,0,0,0,0,0,0,0,0,0,0,0,0,0,0,0,0,0,0,0,0,0,0,0,0,0,0,0,0,0,0,0,0,0,0,0,0,0,0,0,0,0,0,0,0,0,0,0,0,0,0,0,0,0,0,-7.2115,-7.2117,0,-7.2331,-7.2334,-7.2336,-7.233,-7.2327,-7.2324,-7.2321,-7.2538,-7.2547,-7.2555,0,0,0,0,0,0,0,0,0,0,0,0,0,-7.1693,-7.17,-7.2115,-7.2118,-7.212,-7.2331,-7.2334,-7.2337,-7.233,-7.2327,-7.2323,-7.232,-7.2536,-7.2546,-7.2556,0,0,0,0,0,0,0,0,0,0,0,0,0,-7.1889,-7.1703,-7.2114,-7.2143,-7.2147,-7.233,-7.2334,-7.2338,-7.2331,-7.2327,-7.2322,-7.2318,-7.2532,-7.2545,-7.2557,-7.2725,0,0,-7.2596,-7.2602,0,0,0,0,0,0,0,0,-7.1878,-7.1904,-7.2136,-7.2141,-7.2147,-7.2299,-7.2265,-7.2467,-7.2332,-7.2261,-7.2321,-7.2316,-7.2462,-7.248,-7.2531,-7.2735,-7.2745,-7.2598,-7.2605,-7.2611,-7.2614,0,0,0,0,0,0,0,-7.1864,-7.1895,-7.22,-7.2139,-7.2146,-7.2143,-7.2166,-7.2303,-7.2384,-7.2267,-7.2267,-7.2293,-7.2464,-7.2518,-7.2536,-7.2748,-7.2597,-7.2609,-7.2617,-7.2622,-7.3102,-7.3107,0,0,0,0,0,0,-7.1845,-7.1884,-7.2193,-7.2207,-7.1999,-7.2154,-7.218,-7.2255,-7.2382,-7.2398,-7.2297,-7.2292,-7.2499,-7.2521,-7.2543,-7.2749,-7.2611,-7.2623,-7.263,-7.3097,-7.3103,-7.3109,0,0,0,0,0,0,-7.1836,-7.1873,-7.2185,-7.2046,-7.2085,-7.2167,-7.225,-7.2261,-7.2315,-7.2405,-7.2419,-7.2337,-7.2496,-7.2525,-7.2681,-7.2756,-7.2629,-7.264,-7.3091,-7.3099,-7.3106,-7.3162,0,0,0,0,0,0,-7.1824,-7.187,-7.1935,-7.2047,-7.2093,-7.232,-7.2255,-7.2269,-7.2338,-7.2334,-7.2447,-7.2461,-7.2495,-7.2662,-7.2693,-7.2772,-7.265,-7.3085,-7.3095,-7.3104,-7.3153,-7.317,-7.3185,0,0,0,0,0,-7.1809,-7.1941,-7.1939,-7.1976,-7.2176,-7.2324,-7.235,-7.2387,-7.2344,-7.241,-7.2468,-7.2457,-7.2743,-7.2678,-7.2713,-7.2797,-7.308,-7.3092,-7.3103,-7.3146,-7.3167,-7.3184,0,0,0,0,0,0,-7.1834,-7.1956,-7.1955,-7.2127,-7.2216,-7.2323,-7.2407,-7.2408,-7.2509,-7.2501,-7.2542,-7.2567,-7.2723,-7.2775,-7.27,-7.2966,-7.2906,-7.2925,-7.2927,-7.2947,-7.2962,-7.2946,-7.2661,0,0,0,0,0,-7.186,-7.1971,-7.2071,-7.2213,-7.2258,-7.2325,-7.2391,-7.2412,-7.2505,-7.2542,-7.2611,-7.27,-7.281,-7.2881,-7.2987,-7.3161,-7.3185,-7.3236,-7.3251,-7.3264,-7.328,-7.3376,-7.34,-7.3146,-7.3146,-7.3146,0,0,-7.1914,-7.1994,-7.2062,-7.2221,-7.2292,-7.2405,-7.2357,-7.2478,-7.2563,-7.256,-7.2712,-7.2765,-7.2867,-7.3033,-7.3109,-7.3081,-7.3355,-7.3278,-7.3287,-7.3297,-7.339,-7.3414,-7.3435,-7.3154,-7.3153,-7.3151,0,0,-7.207,-7.2143,-7.227,-7.2342,-7.2451,-7.2495,-7.2526,-7.2634,-7.267,-7.2823,-7.2824,-7.2923,-7.3112,-7.3185,-7.3246,-7.3432,-7.3426,-7.3465,-7.3547,-7.364,-7.366,-7.3678,-7.3744,-7.3768,-7.3481,-7.3481,-7.3481,0,-7.2123,-7.2296,-7.2334,-7.2458,-7.2528,-7.2532,-7.2661,-7.2729,-7.2866,-7.2914,-7.2881,-7.3118,-7.3187,-7.337,-7.3416,-7.3465,-7.3501,-7.3452,-7.3654,-7.3673,-7.369,-7.3754,-7.3779,-7.3485,-7.3485,-7.3484,-7.3484,0,-7.2356,-7.2475,-7.2564,-7.2699,-7.2779,-7.2904,-7.2961,-7.3037,-7.3051,-7.3098,-7.3254,-7.3337,-7.3461,-7.3505,-7.352,-7.3691,-7.3671,-7.3646,-7.3586,-7.3718,-7.3778,-7.3803,-7.3491,-7.3489,-7.3488,-7.3487,0,0,-7.2534,-7.2689,-7.2721,-7.2783,-7.2904,-7.2996,-7.3121,-7.3244,-7.3308,-7.3403,-7.3508,-7.3668,-7.3647,-7.3717,-7.3739,-7.3821,-7.3964,-7.3787,-7.3789,-7.3817,-7.4158,-7.4176,-7.4204,-7.3961,-7.3965,-7.3969,-7.4149,0,-7.2703,-7.2927,-7.2966,-7.3162,-7.3273,-7.3279,-7.3388,-7.3473,-7.3521,-7.3621,-7.3672,-7.3785,-7.3748,-7.379,-7.3872,-7.3929,-7.4033,-7.3917,-7.4059,-7.4063,-7.4033,-7.4235,-7.4255,-7.4421,-7.4173,-7.4177,-7.418,0,-7.2931,-7.3034,-7.3241,-7.3348,-7.3396,-7.3493,-7.3609,-7.3705,-7.3801,-7.383,-7.3909,-7.3923,-7.4052,-7.3986,-7.4165,-7.4085,-7.4145,-7.4182,-7.419,-7.4204,-7.413,-7.4256,-7.4475,-7.4499,-7.4218,-7.4215,-7.4212,0,-7.3041,-7.323,-7.3379,-7.3431,-7.356,-7.3628,-7.3685,-7.3777,-7.3849,-7.3949,-7.3996,-7.4109,-7.4172,-7.4259,-7.4302,-7.425,-7.4478,-7.4416,-7.4505,-7.4504,-7.4552,-7.4549,-7.4784,-7.4591,-7.459,-7.459,-7.4589,0,-7.3226,-7.3353,-7.343,-7.3522,-7.3664,-7.3707,-7.3846,-7.39,-7.3983,-7.4084,-7.4096,-7.4191,-7.4242,-7.4344,-7.4379,-7.4522,-7.4549,-7.4576,-7.4583,-7.4575,-7.4572,-7.4615,-7.4605,-7.4597,-7.4595,-7.4594,-7.4593,0,-7.3373,-7.343,-7.3593,-7.3702,-7.3732,-7.3832,-7.3924,-7.4013,-7.406,-7.4188,-7.4221,-7.4295,-7.4416,-7.4468,-7.4616,-7.4639,-7.4803,-7.4802,-7.4771,-7.4774,-7.486,-7.4851,-7.5132,-7.5171,-7.4951,-7.4953,-7.4955,0,-7.3488,-7.3586,-7.3705,-7.3775,-7.3834,-7.3946,-7.4019,-7.4065,-7.4141,-7.426,-7.4334,-7.4455,-7.4555,-7.4748,-7.4814,-7.4927,-7.4929,-7.502,-7.4946,-7.4935,-7.4931,-7.4925,-7.4935,-7.5033,-7.5035,-7.5037,-7.5038,0,-7.3686,-7.3709,-7.3816,-7.3933,-7.402,-7.4114,-7.4205,-7.4261,-7.4322,-7.4406,-7.4531,-7.4609,-7.4761,-7.4881,-7.4999,-7.5055,-7.5057,-7.5061,-7.5088,-7.508,-7.5059,-7.5072,-7.4808,-7.5055,-7.5053,-7.5052,-7.5051,-7.505,-7.382,-7.3908,-7.4007,-7.4125,-7.4199,-7.4284,-7.4373,-7.4433,-7.4538,-7.4667,-7.4687,-7.4821,-7.4915,-7.5074,-7.5135,-7.5239,-7.5216,-7.5255,-7.5265,-7.5274,-7.5279,-7.5042,-7.526,-7.526,-7.526,-7.5259,-7.5259,0,-7.4019,-7.4083,-7.4192,-7.432,-7.4413,-7.4409,-7.451,-7.4587,-7.4705,-7.4794,-7.4893,-7.5036,-7.5153,-7.5229,-7.5347,-7.5416,-7.542,-7.5445,-7.5441,-7.5454,-7.5292,-7.5258,-7.544,-7.544,-7.544,-7.544,-7.544,-7.544,-7.4134,-7.4282,-7.4318,-7.4503,-7.4565,-7.4698,-7.4756,-7.4835,-7.4906,-7.5066,-7.5165,-7.5214,-7.5297,-7.5422,-7.5529,-7.5548,-7.5591,-7.5618,-7.5636,-7.5484,-7.5465,-7.5447,-7.5415,-7.5627,-7.5627,-7.5788,-7.579,-7.5791]}]]